| time (UTC) | temp F | wind direction | speed MPH | gust MPH | rain 1hr in | rain 24hr in | rain mn in | humidity % | barometer mb |
| 20260503045347 | 57 | 136 | 1.0 | 3.0 | 0.00 | 1.30 | 0.04 | 94 | 1010.6 |
| 20260503044320 | 57 | 121 | 1.0 | 2.0 | 0.00 | 1.30 | 0.04 | 94 | 1010.6 |
| 20260503043343 | 57 | 109 | 0.0 | 2.0 | 0.00 | 1.30 | 0.04 | 94 | 1010.5 |
| 20260503042350 | 57 | 109 | 0.0 | 2.0 | 0.00 | 1.30 | 0.04 | 94 | 1010.7 |
| 20260503041344 | 57 | 96 | 0.0 | 2.0 | 0.00 | 1.30 | 0.04 | 94 | 1010.7 |
| 20260503040352 | 57 | 94 | 0.0 | 2.0 | 0.04 | 1.30 | 0.04 | 94 | 1010.6 |
| 20260503035327 | 58 | 94 | 0.0 | 2.0 | 0.04 | 1.30 | 0.04 | 94 | 1010.7 |
| 20260503034335 | 58 | 94 | 1.0 | 4.0 | 0.04 | 1.30 | 0.04 | 94 | 1010.7 |
| 20260503033340 | 58 | 99 | 1.0 | 3.0 | 0.12 | 1.30 | 0.04 | 94 | 1010.7 |
| 20260503032352 | 58 | 99 | 0.0 | 4.0 | 0.16 | 1.30 | 0.04 | 94 | 1010.6 |
| 20260503031358 | 58 | 79 | 0.0 | 8.0 | 0.16 | 1.30 | 0.04 | 94 | 1010.8 |
| 20260503030332 | 58 | 90 | 3.0 | 5.0 | 0.12 | 1.26 | 0.03 | 94 | 1010.9 |
| 20260503025330 | 58 | 117 | 0.0 | 2.0 | 0.12 | 1.26 | 0.03 | 94 | 1011.3 |
| 20260503024326 | 58 | 117 | 0.0 | 3.0 | 0.12 | 1.22 | 0.02 | 94 | 1011.5 |
| 20260503023353 | 58 | 149 | 1.0 | 2.0 | 0.08 | 1.18 | 0.02 | 94 | 1011.9 |
| 20260503022327 | 58 | 149 | 0.0 | 3.0 | 0.04 | 1.14 | 0.01 | 93 | 1011.8 |
| 20260503021333 | 58 | 148 | 2.0 | 3.0 | 0.04 | 1.14 | 0.01 | 93 | 1011.9 |
| 20260503020325 | 58 | 203 | 1.0 | 3.0 | 0.04 | 1.14 | 0.01 | 93 | 1012.1 |
| 20260503015338 | 58 | 149 | 2.0 | 4.0 | 0.04 | 1.14 | 0.01 | 93 | 1012.0 |
| 20260503014330 | 58 | 139 | 0.0 | 3.0 | 0.00 | 1.10 | 0.00 | 93 | 1011.9 |
| 20260503013345 | 58 | 175 | 1.0 | 3.0 | 0.00 | 1.10 | 0.00 | 93 | 1011.9 |
| 20260503012333 | 58 | 175 | 1.0 | 4.0 | 0.00 | 1.10 | 0.00 | 93 | 1012.0 |
| 20260503011327 | 58 | 133 | 0.0 | 3.0 | 0.00 | 1.10 | 0.00 | 93 | 1011.9 |
| 20260503010322 | 58 | 105 | 1.0 | 4.0 | 0.00 | 1.10 | 0.00 | 93 | 1011.7 |
| 20260503005346 | 58 | 100 | 0.0 | 3.0 | 0.00 | 1.10 | 0.00 | 93 | 1011.8 |
| 20260503004325 | 58 | 208 | 1.0 | 3.0 | 0.00 | 1.10 | 0.00 | 93 | 1011.8 |
| 20260503003349 | 58 | 111 | 0.0 | 3.0 | 0.00 | 1.10 | 0.00 | 93 | 1011.8 |
| 20260503002359 | 58 | 107 | 0.0 | 3.0 | 0.00 | 1.10 | 0.00 | 93 | 1011.9 |
| 20260503001350 | 58 | 110 | 2.0 | 4.0 | 0.00 | 1.10 | 0.00 | 95 | 1012.0 |
| 20260503000343 | 58 | 90 | 2.0 | 4.0 | 0.00 | 1.10 | 0.00 | 93 | 1012.0 |
| 20260502235350 | 58 | 95 | 3.0 | 7.0 | 0.00 | 1.10 | 0.00 | 92 | 1012.1 |
| 20260502234345 | 58 | 208 | 3.0 | 7.0 | 0.00 | 1.10 | 0.00 | 92 | 1012.1 |
| 20260502233335 | 59 | 108 | 4.0 | 6.0 | 0.00 | 1.10 | 0.00 | 92 | 1012.3 |
| 20260502232343 | 59 | 101 | 1.0 | 4.0 | 0.00 | 1.10 | 0.00 | 92 | 1012.5 |
| 20260502231335 | 58 | 79 | 2.0 | 7.0 | 0.00 | 1.10 | 0.00 | 92 | 1012.6 |
| 20260502230344 | 58 | 99 | 4.0 | 7.0 | 0.00 | 1.10 | 0.00 | 92 | 1012.6 |
| 20260502225324 | 59 | 82 | 4.0 | 7.0 | 0.00 | 1.10 | 0.00 | 92 | 1012.7 |
| 20260502224348 | 59 | 98 | 3.0 | 9.0 | 0.00 | 1.10 | 0.00 | 91 | 1012.7 |
| 20260502223344 | 59 | 91 | 6.0 | 10.0 | 0.04 | 1.10 | 0.00 | 91 | 1012.6 |
| 20260502222322 | 59 | 98 | 4.0 | 7.0 | 0.12 | 1.10 | 0.00 | 90 | 1012.6 |
| 20260502221334 | 59 | 98 | 3.0 | 7.0 | 0.35 | 1.10 | 0.00 | 90 | 1012.8 |
| 20260502220330 | 59 | 26 | 0.0 | 3.0 | 0.55 | 1.10 | 0.00 | 90 | 1012.7 |
| 20260502215336 | 59 | 38 | 1.0 | 6.0 | 0.75 | 1.10 | 0.22 | 89 | 1012.7 |
| 20260502214343 | 59 | 106 | 5.0 | 10.0 | 0.94 | 1.10 | 0.22 | 89 | 1013.0 |
| 20260502213337 | 60 | 83 | 3.0 | 11.0 | 0.98 | 1.06 | 0.21 | 88 | 1013.1 |
| 20260502212326 | 60 | 42 | 8.0 | 17.0 | 0.94 | 0.94 | 0.19 | 86 | 1013.2 |
| 20260502211347 | 61 | 81 | 11.0 | 16.0 | 0.71 | 0.71 | 0.14 | 83 | 1013.4 |
| 20260502210326 | 61 | 307 | 0.0 | 2.0 | 0.55 | 0.55 | 0.11 | 79 | 1013.8 |
| 20260502205338 | 62 | 265 | 0.0 | 3.0 | 0.31 | 0.31 | 0.07 | 76 | 1014.4 |
| 20260502204344 | 63 | 270 | 1.0 | 9.0 | 0.16 | 0.16 | 0.03 | 74 | 1014.7 |
| 20260502203321 | 64 | 213 | 6.0 | 11.0 | 0.08 | 0.08 | 0.02 | 71 | 1014.8 |
| 20260502202347 | 64 | 57 | 0.0 | 3.0 | 0.00 | 0.00 | 0.00 | 64 | 1013.9 |
| 20260502201325 | 64 | 27 | 0.0 | 2.0 | 0.00 | 0.00 | 0.00 | 63 | 1013.5 |
| 20260502200415 | 64 | 27 | 0.0 | 3.0 | 0.00 | 0.00 | 0.00 | 62 | 1013.4 |
| 20260502195348 | 64 | 5 | 0.0 | 3.0 | 0.00 | 0.00 | 0.00 | 62 | 1013.4 |
| 20260502194321 | 64 | 7 | 0.0 | 4.0 | 0.00 | 0.00 | 0.00 | 62 | 1013.5 |
| 20260502193351 | 65 | 19 | 0.0 | 3.0 | 0.00 | 0.00 | 0.00 | 62 | 1013.6 |
| 20260502192348 | 65 | 19 | 1.0 | 3.0 | 0.00 | 0.00 | 0.00 | 61 | 1013.6 |
| 20260502191352 | 66 | 13 | 0.0 | 3.0 | 0.00 | 0.00 | 0.00 | 61 | 1013.7 |
| 20260502190342 | 66 | 13 | 0.0 | 4.0 | 0.00 | 0.00 | 0.00 | 61 | 1013.7 |
| 20260502185343 | 67 | 356 | 1.0 | 3.0 | 0.00 | 0.00 | 0.00 | 59 | 1013.7 |
| 20260502184354 | 68 | 42 | 1.0 | 3.0 | 0.00 | 0.00 | 0.00 | 58 | 1013.8 |
| 20260502183347 | 68 | 7 | 0.0 | 4.0 | 0.00 | 0.00 | 0.00 | 57 | 1013.7 |
| 20260502182335 | 69 | 42 | 1.0 | 3.0 | 0.00 | 0.00 | 0.00 | 56 | 1013.7 |
| 20260502181326 | 70 | 9 | 1.0 | 3.0 | 0.00 | 0.00 | 0.00 | 56 | 1013.6 |
| 20260502180333 | 71 | 347 | 1.0 | 5.0 | 0.00 | 0.00 | 0.00 | 54 | 1013.6 |
| 20260502170332 | 72 | 31 | 1.0 | 4.0 | 0.00 | 0.00 | 0.00 | 51 | 1014.0 |
| 20260502164340 | 73 | 338 | 2.0 | 4.0 | 0.00 | 0.00 | 0.00 | 48 | 1014.3 |
| 20260502163349 | 74 | 356 | 1.0 | 7.0 | 0.00 | 0.00 | 0.00 | 48 | 1014.5 |
| 20260502162357 | 75 | 12 | 1.0 | 3.0 | 0.00 | 0.00 | 0.00 | 47 | 1014.6 |
| 20260502161330 | 75 | 328 | 0.0 | 6.0 | 0.00 | 0.00 | 0.00 | 47 | 1014.8 |
| 20260502160320 | 76 | 337 | 1.0 | 7.0 | 0.00 | 0.00 | 0.00 | 49 | 1014.9 |
| 20260502152335 | 77 | 208 | 2.0 | 6.0 | 0.00 | 0.00 | 0.00 | 46 | 1015.4 |
| 20260502151350 | 77 | 271 | 4.0 | 9.0 | 0.00 | 0.00 | 0.00 | 47 | 1015.5 |
| 20260502150343 | 77 | 223 | 2.0 | 10.0 | 0.00 | 0.00 | 0.00 | 50 | 1015.6 |
| 20260502130322 | 74 | 241 | 5.0 | 10.0 | 0.00 | 0.00 | 0.00 | 61 | 1017.1 |
| 20260502123328 | 72 | 208 | 3.0 | 9.0 | 0.00 | 0.00 | 0.00 | 63 | 1017.3 |
| 20260502122347 | 72 | 171 | 4.0 | 8.0 | 0.00 | 0.00 | 0.00 | 66 | 1017.4 |
| 20260502121323 | 72 | 257 | 4.0 | 8.0 | 0.00 | 0.00 | 0.00 | 67 | 1017.5 |
| 20260502120357 | 71 | 208 | 4.0 | 9.0 | 0.00 | 0.00 | 0.00 | 68 | 1017.6 |
| 20260502115330 | 70 | 290 | 6.0 | 12.0 | 0.00 | 0.00 | 0.00 | 69 | 1017.7 |
| 20260502114321 | 70 | 268 | 4.0 | 10.0 | 0.00 | 0.00 | 0.00 | 69 | 1017.9 |
| 20260502113331 | 70 | 203 | 5.0 | 9.0 | 0.00 | 0.00 | 0.00 | 71 | 1017.9 |
| 20260502112329 | 69 | 220 | 3.0 | 7.0 | 0.00 | 0.00 | 0.00 | 72 | 1017.9 |
| 20260502111342 | 70 | 230 | 4.0 | 10.0 | 0.00 | 0.00 | 0.00 | 72 | 1018.1 |
| 20260502110335 | 70 | 208 | 3.0 | 9.0 | 0.00 | 0.00 | 0.00 | 71 | 1018.0 |
| 20260502105354 | 71 | 221 | 4.0 | 12.0 | 0.00 | 0.00 | 0.00 | 69 | 1018.0 |
| 20260502104327 | 71 | 302 | 3.0 | 8.0 | 0.00 | 0.00 | 0.00 | 71 | 1018.1 |
| 20260502103348 | 69 | 208 | 5.0 | 10.0 | 0.00 | 0.00 | 0.00 | 73 | 1018.3 |
| 20260502102326 | 69 | 169 | 6.0 | 11.0 | 0.00 | 0.00 | 0.00 | 72 | 1018.3 |
| 20260502101326 | 69 | 208 | 4.0 | 10.0 | 0.00 | 0.00 | 0.00 | 72 | 1018.3 |
| 20260502100321 | 69 | 163 | 4.0 | 11.0 | 0.00 | 0.00 | 0.00 | 71 | 1018.3 |
| 20260502091414 | 69 | 279 | 3.0 | 12.0 | 0.00 | 0.00 | 0.00 | 73 | 1018.5 |
| 20260502090410 | 69 | 292 | 3.0 | 9.0 | 0.00 | 0.00 | 0.00 | 72 | 1018.5 |
| 20260502071322 | 60 | 191 | 0.0 | 0.0 | 0.00 | 0.00 | 0.00 | 76 | 1018.2 |
| 20260502070324 | 59 | 190 | 0.0 | 0.0 | 0.00 | 0.00 | 0.00 | 75 | 1018.3 |
| 20260502065351 | 59 | 190 | 0.0 | 0.0 | 0.00 | 0.00 | 0.00 | 75 | 1018.3 |
| 20260502064331 | 59 | 190 | 0.0 | 0.0 | 0.00 | 0.00 | 0.00 | 74 | 1018.3 |
| 20260502063352 | 59 | 190 | 0.0 | 0.0 | 0.00 | 0.00 | 0.00 | 74 | 1018.3 |
| 20260502062346 | 59 | 191 | 0.0 | 0.0 | 0.00 | 0.00 | 0.00 | 74 | 1018.4 |
| 20260502061349 | 58 | 192 | 0.0 | 2.0 | 0.00 | 0.00 | 0.00 | 74 | 1018.5 |
| 20260502060336 | 58 | 190 | 2.0 | 4.0 | 0.00 | 0.00 | 0.00 | 74 | 1018.5 |
| 20260502055322 | 57 | 233 | 2.0 | 5.0 | 0.00 | 0.00 | 0.00 | 73 | 1018.5 |
| 20260502054350 | 56 | 277 | 2.0 | 4.0 | 0.00 | 0.00 | 0.00 | 73 | 1018.5 |
| 20260502053337 | 56 | 247 | 0.0 | 2.0 | 0.00 | 0.00 | 0.00 | 73 | 1018.5 |
| 20260502052341 | 55 | 247 | 0.0 | 1.0 | 0.00 | 0.00 | 0.00 | 73 | 1018.4 |
| 20260502051321 | 55 | 247 | 1.0 | 2.0 | 0.00 | 0.00 | 0.00 | 73 | 1018.4 |
| 20260502050336 | 55 | 247 | 0.0 | 2.0 | 0.00 | 0.00 | 0.00 | 72 | 1018.3 |